107P/(4015) Wilson-Harrington (2005)

Japanese version
Home page
Updated on April 21, 2007

---------------------------------------------------------------------

* Profile

* Orbital Elements

The following orbital elements are taken from MPO 47597

Epoch 2005 Aug. 18.0 TT = JDT 2453600.5                 MPC
M   8.80006              (2000.0)            P               Q
n   0.22992388     Peri.   91.28098     +0.99829562     -0.03232115
a   2.6388416      Node   270.57272     +0.01034250     +0.91743430
e   0.6237197      Incl.    2.78536     +0.05743592     +0.39657239
P   4.29           H   15.99          G   0.15           U   1
From 152 observations at 9 oppositions, 1949-2002, mean residual 0".79.

* Finding Charts

* Magnitudes Graph

        H =16.0  G = 0.15

---------------------------------------------------------------------

The orbital elements are published at the MPC Ephemerides and Orbital Elements.
The charts are made with StellaNavigator Ver.2.0 for Windows (AstroArts / ASCII).
The magnitudes graphs are made with Comet for Windows.

---------------------------------------------------------------------

Copyright(C) Seiichi Yoshida (comet@aerith.net). All rights reserved.